Meridian NAS, MS

5:11 PM CST on November 23, 2017 (GMT -0600)
Meridian Naval Air Station

Weather History for KNMM - March, 2013

Change the Weather History Date:

Wednesday, March 27, 2013

  Actual Average Record
Temperature  
Mean Temperature 43 °F -  
Max Temperature 60 °F 70 °F 84 °F (2007)
Min Temperature 26 °F 47 °F 26 °F (2013)
Degree Days  
Heating Degree Days 22    
Moisture  
Dew Point 26 °F    
Average Humidity 59    
Maximum Humidity 92    
Minimum Humidity 25    
Precipitation  
Precipitation 0.00 in - - ()
Sea Level Pressure  
Sea Level Pressure 30.41 in    
Wind  
Wind Speed 1 mph (SE)    
Max Wind Speed 8 mph    
Max Gust Speed -    
Visibility 10 miles    
Events      
Averages and records for this station are not official NWS values.
T = Trace of Precipitation, MM = Missing Value Source: NWS Daily Summary

Daily Weather History Graph

Daily Weather History Graph

Search for Another Location

Airport or City:

Trip Planner

Search our weather history database for the weather conditions in past years. The results will help you decide how hot, cold, wet, or windy it might be!

Date:

Astronomy

Mar. 27, 2013 Rise Set
Actual Time 6:48 AM CDT 7:10 PM CDT
Civil Twilight 6:23 AM CDT 7:35 PM CDT
Nautical Twilight 5:55 AM CDT 8:04 PM CDT
Astronomical Twilight 5:25 AM CDT 8:33 PM CDT
Moon 7:49 PM CDT (3/27) 6:42 AM CDT (3/27)
Length of Visible Light 13h 11m
Length of Day
12h 22m
Full, 100% of the Moon is Illuminated
Mar 27
Full
Apr 2
Last Quarter
Apr 10
New
Apr 18
First Quarter
Apr 25
Full

Hourly Weather History & Observations

Time (CDT) Temp. Windchill Dew Point Humidity Pressure Visibility Wind Dir Wind Speed Gust Speed Precip Events Conditions
12:56 AM 30.9 °F - 27.0 °F 85% 30.43 in 10.0 mi Calm Calm - N/A   Clear
1:56 AM 30.0 °F - 26.1 °F 85% 30.42 in 10.0 mi Calm Calm - N/A   Clear
2:56 AM 28.9 °F - 26.1 °F 89% 30.42 in 10.0 mi Calm Calm - N/A   Clear
3:56 AM 28.0 °F - 26.1 °F 92% 30.41 in 10.0 mi Calm Calm - N/A   Clear
4:56 AM 28.0 °F - 25.0 °F 88% 30.42 in 10.0 mi Calm Calm - N/A   Clear
5:56 AM 28.0 °F - 24.1 °F 85% 30.44 in 10.0 mi Calm Calm - N/A   Clear
6:56 AM 26.1 °F - 24.1 °F 92% 30.45 in 10.0 mi Calm Calm - N/A   Clear
7:56 AM 30.0 °F - 27.0 °F 88% 30.48 in 10.0 mi Calm Calm - N/A   Clear
8:56 AM 37.9 °F - 30.9 °F 76% 30.48 in 10.0 mi Calm Calm - N/A   Clear
9:56 AM 44.1 °F 41.5 °F 24.1 °F 45% 30.49 in 10.0 mi ESE 4.6 mph - N/A   Clear
10:56 AM 46.9 °F - 24.1 °F 41% 30.49 in 10.0 mi Calm Calm - N/A   Clear
11:56 AM 50.0 °F - 23.0 °F 35% 30.47 in 10.0 mi Variable 4.6 mph - N/A   Clear
12:56 PM 52.0 °F - 23.0 °F 32% 30.45 in 10.0 mi Calm Calm - N/A   Clear
1:56 PM 54.0 °F - 23.0 °F 30% 30.42 in 10.0 mi WNW 8.1 mph - N/A   Clear
2:56 PM 55.9 °F - 23.0 °F 28% 30.38 in 10.0 mi Calm Calm - N/A   Clear
3:56 PM 57.0 °F - 21.9 °F 26% 30.36 in 10.0 mi SW 3.5 mph - N/A   Clear
4:56 PM 57.9 °F - 23.0 °F 26% 30.34 in 10.0 mi Variable 3.5 mph - N/A   Clear
5:56 PM 60.1 °F - 24.1 °F 25% 30.34 in 10.0 mi Variable 3.5 mph - N/A   Clear
6:56 PM 55.9 °F - 26.1 °F 32% 30.35 in 10.0 mi Calm Calm - N/A   Clear
7:56 PM 50.0 °F - 30.0 °F 46% 30.35 in 10.0 mi East 4.6 mph - N/A   Partly Cloudy
8:56 PM 46.9 °F - 30.9 °F 54% 30.36 in 10.0 mi Calm Calm - N/A   Clear
9:56 PM 43.0 °F - 32.0 °F 65% 30.37 in 10.0 mi Calm Calm - N/A   Clear
10:56 PM 42.1 °F - 32.0 °F 67% 30.36 in 10.0 mi Calm Calm - N/A   Clear
11:56 PM 39.0 °F - 33.1 °F 79% 30.35 in 10.0 mi Calm Calm - N/A   Clear